DW5033 Odessa FL US current weather conditions

sailwx.info

Wind from 060 at 3 knots gusting 6

Air temperature 20.6° C
Dewpoint 11.7° C

Last reported at 2020-Feb-22 22:05 UTC.
Time now 2020-Feb-22 22:46 UTC

Location: N 28°07' W 082°36'.
View on Google Maps.

See reports from other nearby stations

  
Tides and Currents Weather Stations Pressure Air Temp Water Temp Dewpoint Dewpoint Depression Visibility Wind Speed Wind Dir Waves Ship Positions
date/time (UTC)wind fromknots sea level pressurealtimeterstation pressurevisibilityair tempwater tempwave heightnotes
2020-Feb-22 22:05 060 3 gusting 6 20.6
2020-Feb-22 22:00 069 3 gusting 8 20.6
2020-Feb-22 21:50 037 4 gusting 7 20.6
2020-Feb-22 21:45 360 1 gusting 6 20.6
2020-Feb-22 21:40 030 2 gusting 7 20.6
2020-Feb-22 21:30 069 5 gusting 8 20.6
2020-Feb-22 21:25 059 3 gusting 10 20.0
2020-Feb-22 21:20 055 6 gusting 10 20.0
2020-Feb-22 21:10 046 4 gusting 8 20.0
2020-Feb-22 21:05 084 2 gusting 9 20.0
2020-Feb-22 21:00 077 6 gusting 9 20.0
2020-Feb-22 20:55 037 3 gusting 8 20.0
2020-Feb-22 20:45 051 6 gusting 13 20.0
2020-Feb-22 20:40 107 6 gusting 10 20.0
2020-Feb-22 20:35 026 3 gusting 10 20.0
2020-Feb-22 20:30 041 3 gusting 12 19.4
2020-Feb-22 20:20 042 4 gusting 10 19.4
2020-Feb-22 20:15 057 5 gusting 11 19.4
2020-Feb-22 20:10 086 4 gusting 11 19.4
2020-Feb-22 20:05 055 1 gusting 13 19.4
2020-Feb-22 20:00 042 6 gusting 13 19.4
2020-Feb-22 19:50 061 6 gusting 10 19.4
2020-Feb-22 19:45 028 3 gusting 10 19.4
2020-Feb-22 19:40 109 4 gusting 9 19.4
2020-Feb-22 19:35 034 5 gusting 12 18.9
2020-Feb-22 19:30 060 6 gusting 12 18.9
2020-Feb-22 19:20 079 4 gusting 11 18.9
2020-Feb-22 19:15 060 3 gusting 11 18.9
2020-Feb-22 19:10 069 5 gusting 7 18.9
2020-Feb-22 19:00 044 5 gusting 9 18.9
2020-Feb-22 18:55 033 4 gusting 10 18.3
2020-Feb-22 18:50 052 4 gusting 13 18.3
2020-Feb-22 18:40 032 3 gusting 13 18.3
2020-Feb-22 18:35 109 7 gusting 13 17.8
2020-Feb-22 18:30 087 5 gusting 11 17.8
2020-Feb-22 18:20 024 3 gusting 9 17.8
2020-Feb-22 18:15 025 4 gusting 7 17.8
2020-Feb-22 18:10 346 4 gusting 9 17.8
2020-Feb-22 18:05 078 3 gusting 10 17.2
2020-Feb-22 17:55 109 5 gusting 7 17.2
2020-Feb-22 17:50 034 2 gusting 7 16.7
2020-Feb-22 17:40 062 3 gusting 11 16.7
2020-Feb-22 17:30 039 6 gusting 12 16.7
2020-Feb-22 17:25 335 5 gusting 9 16.1
2020-Feb-22 17:15 344 5 gusting 8 16.1
2020-Feb-22 17:05 060 4 gusting 12 15.6
2020-Feb-22 17:00 034 7 gusting 12 15.6
2020-Feb-22 16:55 030 5 gusting 12 15.6
2020-Feb-22 16:50 065 4 gusting 13 15.0
2020-Feb-22 16:40 055 5 gusting 10 14.4
2020-Feb-22 16:35 051 6 gusting 8 14.4
2020-Feb-22 16:30 066 4 gusting 13 14.4
2020-Feb-22 16:25 041 6 gusting 13 14.4
2020-Feb-22 16:20 048 5 gusting 12 14.4
2020-Feb-22 16:10 022 5 gusting 14 13.9
2020-Feb-22 16:05 360 5 gusting 14 13.9
2020-Feb-22 16:00 051 6 gusting 12 13.3
2020-Feb-22 15:50 348 7 gusting 12 13.3
2020-Feb-22 15:45 030 7 gusting 11 13.3
2020-Feb-22 15:35 056 7 gusting 13 12.8
2020-Feb-22 15:25 063 5 gusting 9 12.2
2020-Feb-22 15:15 053 4 gusting 13 12.2
2020-Feb-22 15:10 028 4 gusting 12 11.7
2020-Feb-22 15:05 360 4 gusting 11 11.7
2020-Feb-22 15:00 297 6 gusting 11 11.7
2020-Feb-22 14:50 088 5 gusting 8 11.1
2020-Feb-22 14:45 074 3 gusting 10 10.6
2020-Feb-22 14:40 036 6 gusting 11 10.6
2020-Feb-22 14:35 044 5 gusting 12 10.0
2020-Feb-22 14:25 070 5 gusting 12 9.4
2020-Feb-22 14:20 053 4 gusting 12 9.4
2020-Feb-22 14:15 336 6 gusting 11 8.9
2020-Feb-22 14:10 063 3 gusting 9 8.9
2020-Feb-22 14:05 039 6 gusting 9 8.9
2020-Feb-22 14:00 077 4 gusting 11 8.3
2020-Feb-22 13:50 074 4 gusting 10 8.3
2020-Feb-22 13:45 065 2 gusting 8 7.8
2020-Feb-22 13:40 065 4 gusting 8 7.2
2020-Feb-22 13:35 030 4 gusting 10 7.2
2020-Feb-22 13:30 041 3 gusting 10 6.7
2020-Feb-22 13:20 047 4 gusting 9 6.1
2020-Feb-22 13:15 032 5 gusting 9 6.1
2020-Feb-22 13:10 045 4 gusting 9 6.1
2020-Feb-22 13:05 346 2 gusting 9 5.6
2020-Feb-22 12:55 034 4 gusting 9 5.6
2020-Feb-22 12:50 024 5 gusting 8 5.6
2020-Feb-22 12:45 038 2 gusting 7 5.6
2020-Feb-22 12:40 009 3 gusting 6 5.0
2020-Feb-22 12:30 031 3 gusting 8 5.0
2020-Feb-22 12:25 021 3 gusting 7 5.0
2020-Feb-22 12:20 355 3 gusting 10 5.0
2020-Feb-22 12:10 339 3 gusting 9 5.0
2020-Feb-22 12:05 333 1 gusting 5 4.4
2020-Feb-22 11:55 030 3 gusting 9 4.4
2020-Feb-22 11:50 348 3 gusting 8 4.4
2020-Feb-22 11:45 053 2 gusting 8 4.4
2020-Feb-22 11:35 046 2 gusting 9 4.4
2020-Feb-22 11:30 044 4 gusting 9 4.4
2020-Feb-22 11:25 069 1 gusting 5 4.4
2020-Feb-22 11:20 036 2 gusting 7 4.4
2020-Feb-22 11:10 040 3 gusting 9 4.4
2020-Feb-22 11:05 016 3 gusting 9 4.4
2020-Feb-22 11:00 005 4 gusting 8 5.0
2020-Feb-22 10:55 046 3 gusting 8 5.0
2020-Feb-22 10:45 061 3 gusting 7 5.0
2020-Feb-22 10:40 340 1 gusting 7 5.0
2020-Feb-22 10:35 011 4 gusting 9 5.0
2020-Feb-22 10:30 016 4 gusting 9 5.0
2020-Feb-22 10:20 336 3 gusting 10 5.0
2020-Feb-22 10:15 026 3 gusting 9 5.0
2020-Feb-22 10:10 355 4 gusting 9 5.0
2020-Feb-22 10:05 062 4 gusting 8 5.0
2020-Feb-22 09:55 044 4 gusting 11 5.0
2020-Feb-22 09:50 032 3 gusting 11 5.0
2020-Feb-22 09:45 061 2 gusting 8 5.0
2020-Feb-22 09:35 355 5 gusting 10 5.0
2020-Feb-22 09:30 340 3 gusting 11 5.0
2020-Feb-22 09:25 028 5 gusting 11 5.0
2020-Feb-22 09:20 030 4 gusting 7 5.0
2020-Feb-22 09:10 360 3 gusting 8 5.0
2020-Feb-22 09:05 360 3 gusting 8 5.0
2020-Feb-22 09:00 350 2 gusting 8 5.0
2020-Feb-22 08:50 340 3 gusting 12 5.6
2020-Feb-22 08:45 017 6 gusting 12 5.6
2020-Feb-22 08:40 315 4 gusting 9 5.6
2020-Feb-22 08:35 009 3 gusting 11 5.6
2020-Feb-22 08:30 327 5 gusting 11 5.6
2020-Feb-22 08:20 005 3 gusting 12 5.6
2020-Feb-22 08:15 026 6 gusting 12 5.6
2020-Feb-22 08:10 005 2 gusting 8 5.6
2020-Feb-22 08:05 328 3 gusting 10 6.1
2020-Feb-22 07:55 324 4 gusting 9 6.1
2020-Feb-22 07:50 005 3 gusting 10 6.7
2020-Feb-22 07:45 355 6 gusting 13 6.7
2020-Feb-22 07:35 040 3 gusting 12 6.7
2020-Feb-22 07:30 055 2 gusting 8 6.7
2020-Feb-22 07:25 034 2 gusting 11 6.7
2020-Feb-22 07:15 355 3 gusting 13 6.7
2020-Feb-22 07:10 338 3 gusting 9 6.7
2020-Feb-22 07:05 309 4 gusting 8 6.7
2020-Feb-22 07:00 030 3 gusting 8 6.7
2020-Feb-22 06:55 321 3 gusting 9 6.7
2020-Feb-22 06:50 050 4 gusting 9 6.7
2020-Feb-22 06:40 032 5 gusting 10 6.7
2020-Feb-22 06:35 038 5 gusting 9 7.2
2020-Feb-22 06:25 063 2 gusting 12 7.2
2020-Feb-22 06:20 333 3 gusting 10 7.2
2020-Feb-22 06:15 030 5 gusting 9 7.2
2020-Feb-22 06:10 046 3 gusting 10 7.2
2020-Feb-22 06:00 010 4 gusting 9 7.2
2020-Feb-22 05:55 355 3 gusting 10 7.2
2020-Feb-22 05:50 350 4 gusting 10 7.2
2020-Feb-22 05:40 047 6 gusting 13 7.2
2020-Feb-22 05:35 117 5 gusting 12 7.2
2020-Feb-22 05:25 344 4 gusting 13 7.2
2020-Feb-22 05:20 036 6 gusting 13 7.2
2020-Feb-22 05:15 013 6 gusting 19 7.2
2020-Feb-22 05:05 009 4 gusting 11 7.2
2020-Feb-22 05:00 051 6 gusting 13 7.2
2020-Feb-22 04:55 325 6 gusting 13 7.2
2020-Feb-22 04:45 057 4 gusting 12 7.8
2020-Feb-22 04:40 329 6 gusting 12 7.8
2020-Feb-22 04:35 360 6 gusting 12 7.8
2020-Feb-22 04:30 005 6 gusting 12 7.8
2020-Feb-22 04:25 043 5 gusting 9 7.8
2020-Feb-22 04:15 005 5 gusting 14 7.8
2020-Feb-22 04:10 340 6 gusting 10 7.8
2020-Feb-22 04:05 005 3 gusting 11 7.8
2020-Feb-22 03:55 360 5 gusting 12 7.8
2020-Feb-22 03:50 054 6 gusting 12 7.8
2020-Feb-22 03:45 013 5 gusting 12 7.8
2020-Feb-22 03:40 040 5 gusting 13 7.8
2020-Feb-22 03:30 058 7 gusting 14 8.3
2020-Feb-22 03:25 032 4 gusting 14 8.3
2020-Feb-22 03:20 038 5 gusting 16 8.3
2020-Feb-22 03:15 078 6 gusting 16 8.3
2020-Feb-22 03:10 330 6 gusting 15 8.3
2020-Feb-22 03:00 041 6 gusting 17 8.3
2020-Feb-22 02:55 021 7 gusting 13 8.3
2020-Feb-22 02:50 324 6 gusting 12 8.3
2020-Feb-22 02:45 065 3 gusting 15 8.3
2020-Feb-22 02:35 032 5 gusting 13 8.3
2020-Feb-22 02:30 026 6 gusting 12 8.3
2020-Feb-22 02:25 027 4 gusting 18 8.3
2020-Feb-22 02:15 337 6 gusting 13 8.3
2020-Feb-22 02:10 053 6 gusting 14 8.9
2020-Feb-22 02:05 040 5 gusting 12 8.9
2020-Feb-22 02:00 039 6 gusting 17 8.9
2020-Feb-22 01:55 029 7 gusting 21 8.9
2020-Feb-22 01:50 355 8 gusting 15 8.9
2020-Feb-22 01:40 049 6 gusting 16 8.9
2020-Feb-22 01:35 026 7 gusting 16 8.9
2020-Feb-22 01:30 336 6 gusting 13 8.9
2020-Feb-22 01:25 021 7 gusting 13 9.4
2020-Feb-22 01:20 054 5 gusting 13 9.4
2020-Feb-22 01:10 346 5 gusting 14 9.4
2020-Feb-22 01:05 037 4 gusting 17 9.4
2020-Feb-22 01:00 045 7 gusting 17 9.4
2020-Feb-22 00:55 063 5 gusting 19 9.4
2020-Feb-22 00:50 080 6 gusting 15 9.4
2020-Feb-22 00:40 035 10 gusting 16 9.4
2020-Feb-22 00:35 080 6 gusting 11 9.4
2020-Feb-22 00:30 075 6 gusting 13 9.4
2020-Feb-22 00:25 011 6 gusting 18 9.4
2020-Feb-22 00:20 346 7 gusting 18 9.4
2020-Feb-22 00:15 034 7 gusting 16 9.4
2020-Feb-22 00:05 335 6 gusting 14 9.4
2020-Feb-22 00:00 035 6 gusting 13 9.4
2020-Feb-21 23:55 081 6 gusting 13 9.4
2020-Feb-21 23:50 355 6 gusting 13 9.4
2020-Feb-21 23:45 086 6 gusting 13 9.4
2020-Feb-21 23:35 014 6 gusting 12 9.4
2020-Feb-21 23:30 060 6 gusting 13 9.4
2020-Feb-21 23:25 027 6 gusting 14 9.4
2020-Feb-21 23:20 074 8 gusting 14 9.4
2020-Feb-21 23:10 067 6 gusting 16 9.4
2020-Feb-21 23:05 360 8 gusting 19 9.4
2020-Feb-21 23:00 051 9 gusting 19 9.4
2020-Feb-21 22:50 074 9 gusting 14 10.0
2020-Feb-21 22:45 355 4 gusting 11 10.0
2020-Feb-21 22:35 360 6 gusting 13 10.0
2020-Feb-21 22:30 027 8 gusting 16 10.0
2020-Feb-21 22:25 084 8 gusting 19 10.0
2020-Feb-21 22:20 055 6 gusting 19 10.0
2020-Feb-21 22:15 066 8 gusting 16 10.0
2020-Feb-21 22:10 069 8 gusting 16 10.0
2020-Feb-21 22:05 053 8 gusting 16 10.0
2020-Feb-21 22:00 059 6 gusting 16 10.6
2020-Feb-21 21:55 071 7 gusting 14 10.6
2020-Feb-21 21:45 326 6 gusting 13 10.6
2020-Feb-21 21:35 038 6 gusting 13 10.6
2020-Feb-21 21:30 019 7 gusting 13 10.6
2020-Feb-21 21:25 059 8 gusting 13 11.1
2020-Feb-21 21:20 076 6 gusting 12 11.1
2020-Feb-21 21:10 046 8 gusting 16 11.1
2020-Feb-21 21:05 080 4 gusting 14 11.1
2020-Feb-21 21:00 027 6 gusting 18 11.1
2020-Feb-21 20:50 040 5 gusting 12 11.1
2020-Feb-21 20:45 039 6 gusting 17 11.1
2020-Feb-21 20:40 355 9 gusting 17 11.1
2020-Feb-21 20:35 051 7 gusting 14 11.1
2020-Feb-21 20:25 069 5 gusting 13 11.1
2020-Feb-21 20:20 005 6 gusting 13 11.1
2020-Feb-21 20:15 041 6 gusting 18 11.1
2020-Feb-21 20:10 017 7 gusting 18 11.7
2020-Feb-21 20:00 046 6 gusting 15 11.7
2020-Feb-21 19:55 023 5 gusting 13 11.7
2020-Feb-21 19:50 330 6 gusting 13 11.7
2020-Feb-21 19:45 036 6 gusting 16 11.7
2020-Feb-21 19:35 342 6 gusting 13 12.2
2020-Feb-21 19:30 047 8 gusting 13 12.2
2020-Feb-21 19:25 038 7 gusting 16 12.2
2020-Feb-21 19:15 055 7 gusting 13 12.2
2020-Feb-21 19:10 057 7 gusting 13 12.2
2020-Feb-21 19:05 011 5 gusting 13 12.2
2020-Feb-21 18:55 034 7 gusting 14 11.7
2020-Feb-21 18:50 051 7 gusting 13 12.2
2020-Feb-21 18:45 013 6 gusting 13 12.2
2020-Feb-21 18:40 024 6 gusting 13 12.2
2020-Feb-21 18:30 067 6 gusting 14 12.2
2020-Feb-21 18:25 050 8 gusting 14 12.2
2020-Feb-21 18:20 046 7 gusting 14 12.2
2020-Feb-21 18:15 064 5 gusting 13 12.2
2020-Feb-21 18:10 327 5 gusting 14 12.2
2020-Feb-21 18:00 005 6 gusting 17 12.2
2020-Feb-21 17:55 028 7 gusting 17 12.2
2020-Feb-21 17:50 092 6 gusting 16 12.2
2020-Feb-21 17:40 040 6 gusting 13 12.2
2020-Feb-21 17:35 338 7 gusting 13 12.2
2020-Feb-21 17:30 083 6 gusting 16 12.2
2020-Feb-21 17:25 323 6 gusting 14 12.2
2020-Feb-21 17:15 034 7 gusting 15 12.2
2020-Feb-21 17:10 061 7 gusting 13 12.2
2020-Feb-21 17:05 070 6 gusting 13 12.2
2020-Feb-21 17:00 022 6 gusting 15 12.2
2020-Feb-21 16:50 355 6 gusting 14 12.2
2020-Feb-21 16:45 325 6 gusting 14 12.2
2020-Feb-21 16:40 050 6 gusting 15 12.2
2020-Feb-21 16:35 058 7 gusting 16 12.2
2020-Feb-21 16:30 028 6 gusting 16 12.2
2020-Feb-21 16:25 071 7 gusting 12 12.2
2020-Feb-21 16:15 005 4 gusting 12 12.2
2020-Feb-21 16:10 009 6 gusting 15 11.7
2020-Feb-21 16:05 082 10 gusting 15 11.7
2020-Feb-21 16:00 056 6 gusting 14 11.7
2020-Feb-21 15:55 032 6 gusting 14 11.1
2020-Feb-21 15:50 089 6 gusting 11 11.1
2020-Feb-21 15:40 055 6 gusting 13 10.6
2020-Feb-21 15:35 038 6 gusting 16 10.6
2020-Feb-21 15:30 032 9 gusting 16 10.6
2020-Feb-21 15:25 031 8 gusting 15 10.6
2020-Feb-21 15:20 030 7 gusting 16 10.6
2020-Feb-21 15:15 036 7 gusting 17 10.6
2020-Feb-21 15:05 065 6 gusting 14 10.6
2020-Feb-21 15:00 044 5 gusting 13 10.6
2020-Feb-21 14:50 005 6 gusting 15 10.0
2020-Feb-21 14:45 327 6 gusting 15 10.0
2020-Feb-21 14:40 030 5 gusting 16 10.0
2020-Feb-21 14:35 020 8 gusting 14 10.0
2020-Feb-21 14:30 021 6 gusting 15 10.0
2020-Feb-21 14:20 011 6 gusting 12 10.0
2020-Feb-21 14:15 071 5 gusting 12 10.0
2020-Feb-21 14:10 028 6 gusting 15 10.0
2020-Feb-21 14:00 306 6 gusting 17 10.0
2020-Feb-21 13:55 036 6 gusting 17 9.4
2020-Feb-21 13:50 024 7 gusting 15 9.4
2020-Feb-21 13:45 033 5 gusting 14 9.4
2020-Feb-21 13:35 342 7 gusting 13 10.0
2020-Feb-21 13:30 355 4 gusting 11 10.6
2020-Feb-21 13:25 355 5 gusting 14 10.6
2020-Feb-21 13:20 046 5 gusting 14 10.6
2020-Feb-21 13:15 044 6 gusting 13 10.6
2020-Feb-21 13:05 048 4 gusting 14 10.6
2020-Feb-21 13:00 042 7 gusting 11 10.6
2020-Feb-21 12:55 031 5 gusting 12 10.6
2020-Feb-21 12:50 350 5 gusting 18 10.6
2020-Feb-21 12:45 068 6 gusting 18 10.6
2020-Feb-21 12:40 032 4 gusting 11 10.6
2020-Feb-21 12:35 034 3 gusting 13 11.1
2020-Feb-21 12:30 040 6 gusting 13 11.1
2020-Feb-21 12:25 082 6 gusting 13 11.1
2020-Feb-21 12:20 027 5 gusting 13 11.1
2020-Feb-21 12:10 355 6 gusting 12 11.1
2020-Feb-21 12:05 049 5 gusting 13 11.1
2020-Feb-21 12:00 058 7 gusting 13 11.1
2020-Feb-21 11:50 360 6 gusting 13 11.1
2020-Feb-21 11:45 355 4 gusting 11 11.1
2020-Feb-21 11:40 349 5 gusting 11 11.1
2020-Feb-21 11:35 360 4 gusting 13 11.1
2020-Feb-21 11:30 019 6 gusting 13 11.7
2020-Feb-21 11:20 005 5 gusting 12 11.7
2020-Feb-21 11:15 017 4 gusting 12 11.7
2020-Feb-21 11:10 340 6 gusting 13 11.7
2020-Feb-21 11:05 067 6 gusting 13 11.7
2020-Feb-21 11:00 005 6 gusting 11 11.7
2020-Feb-21 10:55 012 6 gusting 11 11.7
2020-Feb-21 10:50 082 6 gusting 11 12.2
2020-Feb-21 10:45 326 3 gusting 12 12.2
2020-Feb-21 10:40 057 6 gusting 13 12.2
2020-Feb-21 10:35 355 6 gusting 14 12.2
2020-Feb-21 10:30 046 5 gusting 13 12.2
2020-Feb-21 10:25 060 6 gusting 13 12.2
2020-Feb-21 10:20 064 8 gusting 13 12.2
2020-Feb-21 10:15 045 7 gusting 13 12.2
2020-Feb-21 10:10 034 4 gusting 13 12.8
2020-Feb-21 10:05 056 4 gusting 13 12.8
2020-Feb-21 10:00 338 6 gusting 13 12.8
2020-Feb-21 09:55 040 6 gusting 12 13.3
2020-Feb-21 09:45 042 6 gusting 12 13.3
2020-Feb-21 09:40 029 5 gusting 15 13.9
2020-Feb-21 09:35 030 5 gusting 15 13.9
2020-Feb-21 09:30 034 6 gusting 14 13.9
2020-Feb-21 09:25 355 5 gusting 13 13.9
2020-Feb-21 09:20 046 6 gusting 13 14.4
2020-Feb-21 09:10 045 6 gusting 12 14.4
2020-Feb-21 09:05 355 4 gusting 17 15.0
2020-Feb-21 09:00 067 7 gusting 17 15.0
2020-Feb-21 08:55 065 6 gusting 18 15.0
2020-Feb-21 08:50 112 6 gusting 15 15.6
2020-Feb-21 08:45 042 5 gusting 15 16.1
2020-Feb-21 08:40 065 5 gusting 15 16.1
2020-Feb-21 08:35 085 9 gusting 16 17.8
2020-Feb-21 08:30 355 7 gusting 16 20.0
2020-Feb-21 08:20 339 2 gusting 5 21.7
2020-Feb-21 08:15 339 1 gusting 4 21.7
2020-Feb-21 08:10 188 0 gusting 5 21.7
2020-Feb-21 08:00 273 1 gusting 7 22.2
2020-Feb-21 07:55 288 1 gusting 7 22.2
2020-Feb-21 07:45 009 0 gusting 9 22.2
2020-Feb-21 07:40 280 3 gusting 10 22.2
2020-Feb-21 07:35 260 5 gusting 10 22.8
2020-Feb-21 07:25 289 1 gusting 5 22.8
2020-Feb-21 07:20 236 1 gusting 5 22.8
2020-Feb-21 07:15 288 0 gusting 9 22.8
2020-Feb-21 07:10 261 1 gusting 9 22.8
2020-Feb-21 07:05 261 2 gusting 7 22.8
2020-Feb-21 06:55 252 22.2
2020-Feb-21 06:50 282 2 gusting 6 22.2
2020-Feb-21 06:45 256 1 gusting 4 22.2
2020-Feb-21 06:40 225 1 gusting 4 22.2
2020-Feb-21 06:30 259 22.2
2020-Feb-21 06:25 188 1 gusting 3 22.2
2020-Feb-21 06:20 263 1 gusting 3 22.2
2020-Feb-21 06:15 241 0 gusting 2 22.2
2020-Feb-21 06:10 257 0 gusting 2 22.2
2020-Feb-21 06:05 257 22.2
2020-Feb-21 06:00 230 22.2
2020-Feb-21 05:55 249 0 gusting 2 22.2
2020-Feb-21 05:50 248 22.2
2020-Feb-21 05:40 219 0 gusting 2 22.2
2020-Feb-21 05:35 219 22.2
2020-Feb-21 05:30 219 22.2
2020-Feb-21 05:25 219 22.2
2020-Feb-21 05:20 219 22.2
2020-Feb-21 05:15 219 0 gusting 3 22.2
2020-Feb-21 05:05 213 22.2
2020-Feb-21 05:00 215 22.2
2020-Feb-21 04:55 273 22.2
2020-Feb-21 04:50 273 22.2
2020-Feb-21 04:45 209 0 gusting 2 22.2
2020-Feb-21 04:40 217 22.2
2020-Feb-21 04:35 170 22.2
2020-Feb-21 04:30 170 0 gusting 1 22.2
2020-Feb-21 04:25 264 22.2
2020-Feb-21 04:15 265 21.7
2020-Feb-21 04:10 265 22.2
2020-Feb-21 04:05 265 21.7
2020-Feb-21 04:00 265 21.7
2020-Feb-21 03:55 265 21.7
2020-Feb-21 03:50 265 21.7
2020-Feb-21 03:45 265 21.7
2020-Feb-21 03:35 265 21.7
2020-Feb-21 03:30 265 21.7
2020-Feb-21 03:25 265 21.7
2020-Feb-21 03:15 265 21.7
2020-Feb-21 03:10 265 21.7
2020-Feb-21 03:05 265 22.2
2020-Feb-21 02:55 265 22.2
2020-Feb-21 02:50 265 22.2
2020-Feb-21 02:45 265 22.2
2020-Feb-21 02:40 265 22.2
2020-Feb-21 02:35 265 22.2
2020-Feb-21 02:30 265 22.2
2020-Feb-21 02:20 265 22.2
2020-Feb-21 02:15 265 21.7
2020-Feb-21 02:05 265 22.2
2020-Feb-21 02:00 265 22.2
2020-Feb-21 01:55 265 22.2
2020-Feb-21 01:50 265 22.2
2020-Feb-21 01:45 265 22.2
2020-Feb-21 01:40 265 22.2
2020-Feb-21 01:35 265 22.2
2020-Feb-21 01:30 265 22.2
2020-Feb-21 01:25 265 22.8
2020-Feb-21 01:20 265 22.8
2020-Feb-21 01:10 261 22.8
2020-Feb-21 01:05 276 22.8
2020-Feb-21 01:00 282 22.8
2020-Feb-21 00:55 257 22.8
2020-Feb-21 00:50 257 1 gusting 6 22.8
2020-Feb-21 00:45 296 1 gusting 6 22.8
2020-Feb-21 00:40 225 0 gusting 8 22.8
2020-Feb-21 00:30 355 0 gusting 7 22.8
2020-Feb-21 00:25 336 2 gusting 8 22.8
2020-Feb-21 00:20 360 0 gusting 7 22.8
2020-Feb-21 00:15 308 2 gusting 6 22.8
2020-Feb-21 00:10 236 1 gusting 5 22.8
2020-Feb-21 00:05 240 0 gusting 4 22.8
2020-Feb-20 23:55 262 0 gusting 6 23.3
2020-Feb-20 23:50 261 1 gusting 6 23.3
2020-Feb-20 23:45 253 1 gusting 4 23.3
2020-Feb-20 23:40 258 0 gusting 6 23.3
2020-Feb-20 23:35 259 1 gusting 6 23.9
2020-Feb-20 23:25 246 0 gusting 3 23.9
2020-Feb-20 23:20 267 23.9
2020-Feb-20 23:15 267 3 gusting 7 24.4
2020-Feb-20 23:10 254 1 gusting 7 24.4
2020-Feb-20 23:05 245 2 gusting 6 24.4
2020-Feb-20 23:00 350 0 gusting 6 25.0
2020-Feb-20 22:55 301 1 gusting 5 25.0
2020-Feb-20 22:50 240 1 gusting 6 25.0
2020-Feb-20 22:45 257 2 gusting 6 25.6
2020-Feb-20 22:40 261 1 gusting 6 25.6
2020-Feb-20 22:35 269 2 gusting 8 25.6
2020-Feb-20 22:30 266 3 gusting 8 25.6
2020-Feb-20 22:25 217 4 gusting 8 26.1
2020-Feb-20 22:20 292 2 gusting 8 26.1
2020-Feb-20 22:10 230 3 gusting 11 26.7
2020-Feb-20 22:05 292 3 gusting 11 26.7
2020-Feb-20 22:00 268 2 gusting 8 26.7